Time,TemperatureF,DewpointF,PressureIn,WindDirection,WindDirectionDegrees,WindSpeedMPH,WindSpeedGustMPH,Humidity,HourlyPrecipIn,Conditions,Clouds,dailyrainin,SoftwareType,DateUTC
2013-05-24 00:01:00,46.2,44.9,29.99,West,278,0.0,0.0,95,0.00,RA,,0.00,WeatherDisplay:10.37,2013-05-24 07:01:00,
2013-05-24 00:11:00,45.7,44.4,29.99,West,278,0.0,0.0,95,0.00,OVC,,0.00,WeatherDisplay:10.37,2013-05-24 07:11:00,
2013-05-24 00:16:00,45.5,44.2,29.99,West,278,0.0,0.0,95,0.00,OVC,,0.00,WeatherDisplay:10.37,2013-05-24 07:16:00,
2013-05-24 00:21:00,45.3,44.0,29.99,West,278,0.0,0.0,95,0.00,OVC,,0.00,WeatherDisplay:10.37,2013-05-24 07:21:00,
2013-05-24 00:26:00,45.2,43.9,29.99,West,278,0.0,0.0,95,0.00,OVC,,0.00,WeatherDisplay:10.37,2013-05-24 07:26:00,
2013-05-24 00:31:00,45.1,43.8,29.99,West,278,0.0,1.0,95,0.00,OVC,,0.00,WeatherDisplay:10.37,2013-05-24 07:31:00,
2013-05-24 00:36:00,45.0,43.9,29.99,West,277,0.0,0.0,96,0.00,OVC,,0.00,WeatherDisplay:10.37,2013-05-24 07:36:00,
2013-05-24 00:41:00,44.8,43.5,29.99,West,277,0.0,0.0,95,0.00,OVC,,0.00,WeatherDisplay:10.37,2013-05-24 07:41:00,
2013-05-24 00:46:00,44.6,43.5,29.99,West,277,0.0,0.0,96,0.00,OVC,,0.00,WeatherDisplay:10.37,2013-05-24 07:46:00,
2013-05-24 00:51:00,44.5,43.4,29.99,West,277,0.0,0.0,96,0.00,OVC,,0.00,WeatherDisplay:10.37,2013-05-24 07:51:00,
2013-05-24 00:56:00,44.3,43.3,29.99,West,277,0.0,0.0,96,0.00,OVC,,0.00,WeatherDisplay:10.37,2013-05-24 07:56:00,
2013-05-24 01:01:00,44.4,43.3,29.99,West,277,0.0,0.0,96,0.00,OVC,,0.00,WeatherDisplay:10.37,2013-05-24 08:01:00,
2013-05-24 01:11:00,44.5,43.4,30.00,West,277,0.0,0.0,96,0.00,OVC,,0.00,WeatherDisplay:10.37,2013-05-24 08:11:00,
2013-05-24 01:16:00,44.5,43.4,30.00,West,277,0.0,0.0,96,0.00,OVC,,0.00,WeatherDisplay:10.37,2013-05-24 08:16:00,
2013-05-24 01:21:00,44.5,43.4,30.00,West,277,0.0,0.0,96,0.00,OVC,,0.00,WeatherDisplay:10.37,2013-05-24 08:21:00,
2013-05-24 01:26:00,44.6,43.8,30.00,West,277,0.0,0.0,97,0.00,OVC,,0.00,WeatherDisplay:10.37,2013-05-24 08:26:00,
2013-05-24 01:31:00,44.7,43.9,30.00,West,277,0.0,0.0,97,0.00,OVC,,0.00,WeatherDisplay:10.37,2013-05-24 08:31:00,
2013-05-24 01:36:00,44.7,43.6,30.00,West,277,0.0,0.0,96,0.00,OVC,,0.00,WeatherDisplay:10.37,2013-05-24 08:36:00,
2013-05-24 01:41:00,44.7,43.6,29.99,West,277,0.0,0.0,96,0.00,OVC,,0.00,WeatherDisplay:10.37,2013-05-24 08:41:00,
2013-05-24 01:46:00,44.7,43.6,29.99,West,277,0.0,0.0,96,0.00,OVC,,0.00,WeatherDisplay:10.37,2013-05-24 08:46:00,
2013-05-24 01:51:00,44.8,44.0,29.99,West,277,0.0,0.0,97,0.00,OVC,,0.00,WeatherDisplay:10.37,2013-05-24 08:51:00,
2013-05-24 01:56:00,44.8,44.0,29.99,West,277,0.0,0.0,97,0.00,OVC,,0.00,WeatherDisplay:10.37,2013-05-24 08:56:00,
2013-05-24 02:01:00,44.8,44.0,29.99,West,277,0.0,0.0,97,0.00,OVC,,0.00,WeatherDisplay:10.37,2013-05-24 09:01:00,
2013-05-24 02:11:00,44.6,43.5,29.99,West,277,0.0,0.0,96,0.00,OVC,,0.00,WeatherDisplay:10.37,2013-05-24 09:11:00,
2013-05-24 02:16:00,44.4,43.4,29.99,West,277,0.0,0.0,96,0.00,OVC,,0.00,WeatherDisplay:10.37,2013-05-24 09:16:00,
2013-05-24 02:21:00,44.2,43.2,29.99,West,277,0.0,0.0,96,0.00,OVC,,0.00,WeatherDisplay:10.37,2013-05-24 09:21:00,
2013-05-24 02:26:00,44.1,43.3,29.99,West,277,0.0,0.0,97,0.00,OVC,,0.00,WeatherDisplay:10.37,2013-05-24 09:26:00,
2013-05-24 02:31:00,44.2,43.4,29.99,West,277,0.0,0.0,97,0.00,OVC,,0.00,WeatherDisplay:10.37,2013-05-24 09:31:00,
2013-05-24 02:36:00,44.2,43.4,29.99,West,277,0.0,0.0,97,0.00,OVC,,0.00,WeatherDisplay:10.37,2013-05-24 09:36:00,
2013-05-24 02:41:00,44.3,43.5,29.99,West,277,0.0,0.0,97,0.00,OVC,,0.00,WeatherDisplay:10.37,2013-05-24 09:41:00,
2013-05-24 02:46:00,44.3,43.5,29.99,West,277,0.0,0.0,97,0.00,OVC,,0.00,WeatherDisplay:10.37,2013-05-24 09:46:00,
2013-05-24 02:51:00,44.2,43.4,30.00,West,277,0.0,0.0,97,0.00,OVC,,0.00,WeatherDisplay:10.37,2013-05-24 09:51:00,
2013-05-24 02:56:00,44.2,43.4,30.00,West,277,0.0,0.0,97,0.00,OVC,,0.00,WeatherDisplay:10.37,2013-05-24 09:56:00,
2013-05-24 03:01:00,44.3,43.5,30.00,West,277,0.0,0.0,97,0.00,-RA,,0.00,WeatherDisplay:10.37,2013-05-24 10:01:00,
2013-05-24 03:11:00,44.3,43.5,30.00,West,277,0.0,0.0,97,0.00,-RA,,0.00,WeatherDisplay:10.37,2013-05-24 10:11:00,
2013-05-24 03:16:00,44.2,43.4,30.00,West,277,0.0,0.0,97,0.00,-RA,,0.00,WeatherDisplay:10.37,2013-05-24 10:16:00,
2013-05-24 03:21:00,44.1,43.3,29.99,West,277,0.0,0.0,97,0.00,-RA,,0.00,WeatherDisplay:10.37,2013-05-24 10:21:00,
2013-05-24 03:26:00,44.0,43.2,29.99,West,277,0.0,0.0,97,0.00,-RA,,0.00,WeatherDisplay:10.37,2013-05-24 10:26:00,
2013-05-24 03:31:00,44.0,43.2,29.99,West,277,0.0,0.0,97,0.00,-RA,,0.00,WeatherDisplay:10.37,2013-05-24 10:31:00,
2013-05-24 03:36:00,44.0,43.2,29.99,West,277,0.0,0.0,97,0.00,-RA,,0.00,WeatherDisplay:10.37,2013-05-24 10:36:00,
2013-05-24 03:46:00,44.1,43.3,30.00,West,277,0.0,0.0,97,0.00,-RA,,0.00,WeatherDisplay:10.37,2013-05-24 10:46:00,
2013-05-24 03:51:00,44.2,43.4,30.00,West,277,0.0,0.0,97,0.00,-RA,,0.00,WeatherDisplay:10.37,2013-05-24 10:51:00,
2013-05-24 03:56:00,44.1,43.3,30.00,West,277,0.0,0.0,97,0.00,-RA,,0.00,WeatherDisplay:10.37,2013-05-24 10:56:00,
2013-05-24 04:01:00,44.1,43.3,30.00,West,277,0.0,0.0,97,0.00,OVC,,0.00,WeatherDisplay:10.37,2013-05-24 11:01:00,
2013-05-24 04:11:00,44.3,43.5,29.99,West,277,0.0,0.0,97,0.00,OVC,,0.00,WeatherDisplay:10.37,2013-05-24 11:11:00,
2013-05-24 04:16:00,44.3,43.5,30.00,West,277,0.0,0.0,97,0.00,OVC,,0.00,WeatherDisplay:10.37,2013-05-24 11:16:00,
2013-05-24 04:21:00,44.3,43.5,30.00,West,277,0.0,0.0,97,0.00,OVC,,0.00,WeatherDisplay:10.37,2013-05-24 11:21:00,
2013-05-24 04:26:00,44.3,43.5,30.00,West,277,0.0,0.0,97,0.00,OVC,,0.00,WeatherDisplay:10.37,2013-05-24 11:26:00,
2013-05-24 04:31:00,44.2,43.4,30.00,West,277,0.0,0.0,97,0.00,OVC,,0.00,WeatherDisplay:10.37,2013-05-24 11:31:00,
2013-05-24 04:36:00,44.2,43.4,30.00,West,277,0.0,0.0,97,0.00,OVC,,0.00,WeatherDisplay:10.37,2013-05-24 11:36:00,
2013-05-24 04:41:00,44.2,43.4,30.00,West,277,0.0,0.0,97,0.00,OVC,,0.00,WeatherDisplay:10.37,2013-05-24 11:41:00,
2013-05-24 04:46:00,44.2,43.4,30.00,West,277,0.0,0.0,97,0.00,OVC,,0.00,WeatherDisplay:10.37,2013-05-24 11:46:00,
2013-05-24 04:51:00,44.2,43.4,30.00,West,277,0.0,0.0,97,0.00,OVC,,0.00,WeatherDisplay:10.37,2013-05-24 11:51:00,
2013-05-24 04:56:00,44.2,43.4,30.00,West,277,0.0,0.0,97,0.00,OVC,,0.00,WeatherDisplay:10.37,2013-05-24 11:56:00,
2013-05-24 05:01:00,44.3,43.5,30.00,West,277,0.0,0.0,97,0.00,OVC,,0.00,WeatherDisplay:10.37,2013-05-24 12:01:00,
2013-05-24 05:11:00,44.3,43.5,30.00,West,277,0.0,0.0,97,0.00,OVC,,0.00,WeatherDisplay:10.37,2013-05-24 12:11:00,
2013-05-24 05:16:00,44.3,43.5,30.00,West,277,0.0,0.0,97,0.00,OVC,,0.00,WeatherDisplay:10.37,2013-05-24 12:16:00,
2013-05-24 05:21:00,44.3,43.5,30.00,West,277,0.0,0.0,97,0.00,OVC,,0.00,WeatherDisplay:10.37,2013-05-24 12:21:00,
2013-05-24 05:31:00,44.4,43.6,30.00,West,276,0.0,0.0,97,0.00,OVC,,0.00,WeatherDisplay:10.37,2013-05-24 12:31:00,
2013-05-24 05:36:00,44.5,43.7,30.00,West,276,0.0,0.0,97,0.00,OVC,,0.00,WeatherDisplay:10.37,2013-05-24 12:36:00,
2013-05-24 05:41:00,44.5,43.7,30.00,West,277,0.0,0.0,97,0.00,OVC,,0.00,WeatherDisplay:10.37,2013-05-24 12:41:00,
2013-05-24 05:46:00,44.6,43.8,30.00,West,277,0.0,0.0,97,0.00,OVC,,0.00,WeatherDisplay:10.37,2013-05-24 12:46:00,
2013-05-24 05:51:00,44.6,43.8,30.01,West,277,0.0,0.0,97,0.00,OVC,,0.00,WeatherDisplay:10.37,2013-05-24 12:51:00,
2013-05-24 05:56:00,44.5,43.7,30.01,West,277,0.0,0.0,97,0.00,OVC,,0.00,WeatherDisplay:10.37,2013-05-24 12:56:00,
2013-05-24 06:01:00,44.5,43.7,30.01,West,277,0.0,0.0,97,0.00,OVC,,0.00,WeatherDisplay:10.37,2013-05-24 13:01:00,
2013-05-24 06:11:00,44.6,43.8,30.01,West,277,0.0,0.0,97,0.00,OVC,,0.00,WeatherDisplay:10.37,2013-05-24 13:11:00,
2013-05-24 06:16:00,44.7,43.9,30.01,West,277,0.0,0.0,97,0.00,OVC,,0.00,WeatherDisplay:10.37,2013-05-24 13:16:00,
2013-05-24 06:21:00,44.8,44.0,30.01,West,277,0.0,0.0,97,0.00,OVC,,0.00,WeatherDisplay:10.37,2013-05-24 13:21:00,
2013-05-24 06:26:00,45.0,44.2,30.01,West,277,0.0,0.0,97,0.00,OVC,,0.00,WeatherDisplay:10.37,2013-05-24 13:26:00,
2013-05-24 06:31:00,45.1,45.1,30.01,West,277,0.0,0.0,100,0.00,OVC,,0.00,WeatherDisplay:10.37,2013-05-24 13:31:00,
2013-05-24 06:36:00,45.2,45.2,30.02,West,277,0.0,0.0,100,0.00,OVC,,0.00,WeatherDisplay:10.37,2013-05-24 13:36:00,
2013-05-24 06:41:00,45.3,45.3,30.01,West,277,0.0,0.0,100,0.00,OVC,,0.00,WeatherDisplay:10.37,2013-05-24 13:41:00,
2013-05-24 06:46:00,45.5,45.5,30.01,West,277,0.0,0.0,100,0.00,OVC,,0.00,WeatherDisplay:10.37,2013-05-24 13:46:00,
2013-05-24 06:51:00,45.6,45.6,30.01,West,277,0.0,0.0,100,0.00,OVC,,0.00,WeatherDisplay:10.37,2013-05-24 13:51:00,
2013-05-24 06:56:00,45.8,45.8,30.01,West,277,0.0,1.0,100,0.00,OVC,,0.00,WeatherDisplay:10.37,2013-05-24 13:56:00,
2013-05-24 07:01:00,45.9,45.9,30.01,West,276,0.0,1.0,100,0.00,-RA,,0.00,WeatherDisplay:10.37,2013-05-24 14:01:00,
2013-05-24 07:11:00,46.3,46.3,30.01,SSW,193,0.0,0.0,100,0.00,-RA,,0.00,WeatherDisplay:10.37,2013-05-24 14:11:00,
2013-05-24 07:16:00,46.4,45.6,30.01,SSW,193,0.0,0.0,97,0.00,-RA,,0.00,WeatherDisplay:10.37,2013-05-24 14:16:00,
2013-05-24 07:21:00,46.5,45.7,30.01,SSW,193,0.0,0.0,97,0.00,-RA,,0.00,WeatherDisplay:10.37,2013-05-24 14:21:00,
2013-05-24 07:26:00,46.7,45.9,30.02,SSW,193,0.0,0.0,97,0.00,-RA,,0.00,WeatherDisplay:10.37,2013-05-24 14:26:00,
2013-05-24 07:31:00,46.7,45.9,30.02,SSW,193,0.0,0.0,97,0.00,-RA,,0.00,WeatherDisplay:10.37,2013-05-24 14:31:00,
2013-05-24 07:36:00,47.0,46.2,30.02,SSW,193,0.0,0.0,97,0.00,-RA,,0.00,WeatherDisplay:10.37,2013-05-24 14:36:00,
2013-05-24 07:41:00,47.3,46.5,30.02,SSW,193,0.0,0.0,97,0.00,-RA,,0.00,WeatherDisplay:10.37,2013-05-24 14:41:00,
2013-05-24 07:46:00,47.5,46.7,30.02,SSW,193,0.0,0.0,97,0.00,-RA,,0.00,WeatherDisplay:10.37,2013-05-24 14:46:00,
2013-05-24 07:51:00,47.7,46.9,30.02,SSW,193,0.0,0.0,97,0.00,-RA,,0.00,WeatherDisplay:10.37,2013-05-24 14:51:00,
2013-05-24 07:56:00,47.9,46.8,30.02,SSW,193,0.0,0.0,96,0.00,-RA,,0.00,WeatherDisplay:10.37,2013-05-24 14:56:00,
2013-05-24 08:01:00,48.1,47.0,30.02,South,190,0.0,1.0,96,0.00,OVC,,0.00,WeatherDisplay:10.37,2013-05-24 15:01:00,
2013-05-24 08:11:00,48.6,47.0,30.02,SE,124,0.0,1.0,94,0.00,OVC,,0.00,WeatherDisplay:10.37,2013-05-24 15:11:00,
2013-05-24 08:16:00,48.9,47.0,30.02,SE,124,0.0,1.0,93,0.00,OVC,,0.00,WeatherDisplay:10.37,2013-05-24 15:16:00,
2013-05-24 08:21:00,49.4,47.5,30.02,SE,124,0.0,0.0,93,0.00,OVC,,0.00,WeatherDisplay:10.37,2013-05-24 15:21:00,
2013-05-24 08:26:00,49.8,47.6,30.02,SE,124,0.0,0.0,92,0.00,OVC,,0.00,WeatherDisplay:10.37,2013-05-24 15:26:00,
2013-05-24 08:31:00,50.1,47.6,30.02,ESE,122,0.0,2.0,91,0.00,OVC,,0.00,WeatherDisplay:10.37,2013-05-24 15:31:00,
2013-05-24 08:36:00,50.3,47.2,30.02,North,359,0.0,2.0,89,0.00,OVC,,0.00,WeatherDisplay:10.37,2013-05-24 15:36:00,
2013-05-24 08:41:00,50.7,47.6,30.02,NNE,12,0.0,1.0,89,0.00,OVC,,0.00,WeatherDisplay:10.37,2013-05-24 15:41:00,
2013-05-24 08:46:00,51.1,46.4,30.02,SW,236,1.0,5.0,84,0.00,OVC,,0.00,WeatherDisplay:10.37,2013-05-24 15:46:00,
2013-05-24 08:51:00,51.1,46.1,30.03,WSW,257,0.0,3.0,83,0.00,OVC,,0.00,WeatherDisplay:10.37,2013-05-24 15:51:00,
2013-05-24 08:56:00,51.4,46.1,30.03,SSW,209,1.0,3.0,82,0.00,OVC,,0.00,WeatherDisplay:10.37,2013-05-24 15:56:00,
2013-05-24 09:01:00,51.5,46.2,30.03,SSE,167,1.0,4.0,82,0.00,-RA,,0.00,WeatherDisplay:10.37,2013-05-24 16:01:00,
2013-05-24 09:11:00,51.9,46.2,30.03,SW,230,1.0,3.0,81,0.00,-RA,,0.00,WeatherDisplay:10.37,2013-05-24 16:11:00,
2013-05-24 09:16:00,52.2,46.5,30.03,SE,142,1.0,4.0,81,0.00,-RA,,0.00,WeatherDisplay:10.37,2013-05-24 16:16:00,
2013-05-24 09:21:00,52.2,45.9,30.03,SSE,153,1.0,4.0,79,0.00,-RA,,0.00,WeatherDisplay:10.37,2013-05-24 16:21:00,
2013-05-24 09:26:00,52.3,46.3,30.03,South,188,1.0,3.0,80,0.00,-RA,,0.00,WeatherDisplay:10.37,2013-05-24 16:26:00,
2013-05-24 09:31:00,52.3,46.0,30.03,WSW,247,1.0,4.0,79,0.00,-RA,,0.00,WeatherDisplay:10.37,2013-05-24 16:31:00,
2013-05-24 09:36:00,52.3,45.9,30.03,SW,231,1.0,4.0,79,0.00,-RA,,0.00,WeatherDisplay:10.37,2013-05-24 16:36:00,
2013-05-24 09:41:00,51.9,45.6,30.03,SW,236,2.0,6.0,79,0.00,-RA,,0.00,WeatherDisplay:10.37,2013-05-24 16:41:00,
2013-05-24 09:46:00,51.8,46.2,30.03,WSW,248,2.0,5.0,81,0.00,-RA,,0.00,WeatherDisplay:10.37,2013-05-24 16:46:00,
2013-05-24 09:51:00,51.8,46.2,30.03,WSW,249,0.0,5.0,81,0.00,-RA,,0.00,WeatherDisplay:10.37,2013-05-24 16:51:00,
2013-05-24 09:56:00,52.3,46.7,30.03,WSW,251,0.0,4.0,81,0.00,-RA,,0.00,WeatherDisplay:10.37,2013-05-24 16:56:00,
2013-05-24 10:01:00,52.3,46.0,30.04,WSW,246,2.0,3.0,79,0.00,OVC,,0.00,WeatherDisplay:10.37,2013-05-24 17:01:00,
2013-05-24 10:11:00,52.4,46.4,30.04,SW,233,1.0,5.0,80,0.00,OVC,,0.00,WeatherDisplay:10.37,2013-05-24 17:11:00,
2013-05-24 10:16:00,52.6,46.6,30.04,South,177,1.0,3.0,80,0.00,OVC,,0.00,WeatherDisplay:10.37,2013-05-24 17:16:00,
2013-05-24 10:26:00,53.1,46.8,30.04,South,181,1.0,4.0,79,0.00,OVC,,0.00,WeatherDisplay:10.37,2013-05-24 17:26:00,
2013-05-24 10:31:00,53.6,46.9,30.04,SW,214,1.0,4.0,78,0.00,OVC,,0.00,WeatherDisplay:10.37,2013-05-24 17:31:00,
2013-05-24 10:36:00,53.6,46.9,30.04,SSE,163,1.0,5.0,78,0.00,OVC,,0.00,WeatherDisplay:10.37,2013-05-24 17:36:00,
2013-05-24 10:41:00,53.9,47.5,30.04,SE,146,0.0,2.0,79,0.00,OVC,,0.00,WeatherDisplay:10.37,2013-05-24 17:41:00,
2013-05-24 10:46:00,54.3,47.6,30.04,WSW,243,0.0,1.0,78,0.00,OVC,,0.00,WeatherDisplay:10.37,2013-05-24 17:46:00,
2013-05-24 10:51:00,54.3,47.2,30.04,SSW,213,1.0,3.0,77,0.00,OVC,,0.00,WeatherDisplay:10.37,2013-05-24 17:51:00,
2013-05-24 10:56:00,54.3,47.6,30.04,SSE,160,0.0,3.0,78,0.00,OVC,,0.00,WeatherDisplay:10.37,2013-05-24 17:56:00,
2013-05-24 11:01:00,54.3,47.6,30.04,SE,136,0.0,2.0,78,0.00,OVC,,0.00,WeatherDisplay:10.37,2013-05-24 18:01:00,
2013-05-24 11:11:00,54.2,46.8,30.04,SSE,150,1.0,3.0,76,0.00,OVC,,0.00,WeatherDisplay:10.37,2013-05-24 18:11:00,
2013-05-24 11:16:00,54.2,47.1,30.04,SSE,151,2.0,5.0,77,0.00,OVC,,0.00,WeatherDisplay:10.37,2013-05-24 18:16:00,
2013-05-24 11:21:00,54.1,47.4,30.04,SSE,154,0.0,2.0,78,0.00,OVC,,0.00,WeatherDisplay:10.37,2013-05-24 18:21:00,
2013-05-24 11:26:00,54.5,47.4,30.04,SSE,152,0.0,2.0,77,0.00,OVC,,0.00,WeatherDisplay:10.37,2013-05-24 18:26:00,
2013-05-24 11:31:00,54.9,47.9,30.04,SSE,156,0.0,3.0,77,0.00,OVC,,0.00,WeatherDisplay:10.37,2013-05-24 18:31:00,
2013-05-24 11:36:00,55.5,48.1,30.04,SE,146,2.0,4.0,76,0.00,OVC,,0.00,WeatherDisplay:10.37,2013-05-24 18:36:00,
2013-05-24 11:41:00,55.8,48.0,30.04,SE,131,1.0,3.0,75,0.00,OVC,,0.00,WeatherDisplay:10.37,2013-05-24 18:41:00,
2013-05-24 11:46:00,55.7,46.8,30.04,ESE,123,0.0,4.0,72,0.00,OVC,,0.00,WeatherDisplay:10.37,2013-05-24 18:46:00,
2013-05-24 11:51:00,56.2,46.9,30.04,SE,139,0.0,3.0,71,0.00,OVC,,0.00,WeatherDisplay:10.37,2013-05-24 18:51:00,
2013-05-24 11:56:00,56.8,47.1,30.04,South,170,1.0,2.0,70,0.00,OVC,,0.00,WeatherDisplay:10.37,2013-05-24 18:56:00,
2013-05-24 12:01:00,56.7,46.3,30.04,South,178,1.0,3.0,68,0.00,OVC,,0.00,WeatherDisplay:10.37,2013-05-24 19:01:00,
2013-05-24 12:11:00,56.1,46.4,30.04,SSW,206,2.0,7.0,70,0.00,OVC,,0.00,WeatherDisplay:10.37,2013-05-24 19:11:00,
2013-05-24 12:16:00,55.6,46.7,30.04,SW,232,2.0,7.0,72,0.00,OVC,,0.00,WeatherDisplay:10.37,2013-05-24 19:16:00,
2013-05-24 12:21:00,55.2,47.1,30.04,WSW,244,1.0,5.0,74,0.00,OVC,,0.00,WeatherDisplay:10.37,2013-05-24 19:21:00,
2013-05-24 12:26:00,54.9,46.4,30.04,WSW,246,3.0,7.0,73,0.00,OVC,,0.00,WeatherDisplay:10.37,2013-05-24 19:26:00,
2013-05-24 12:31:00,54.6,46.8,30.04,WSW,250,0.0,4.0,75,0.00,OVC,,0.00,WeatherDisplay:10.37,2013-05-24 19:31:00,
2013-05-24 12:36:00,54.6,46.8,30.04,WSW,246,1.0,3.0,75,0.00,OVC,,0.00,WeatherDisplay:10.37,2013-05-24 19:36:00,
2013-05-24 12:41:00,54.8,47.3,30.04,SW,231,1.0,3.0,76,0.00,OVC,,0.00,WeatherDisplay:10.37,2013-05-24 19:41:00,
2013-05-24 12:51:00,55.0,46.5,30.04,SW,234,1.0,4.0,73,0.00,OVC,,0.00,WeatherDisplay:10.37,2013-05-24 19:51:00,
2013-05-24 12:56:00,55.2,46.3,30.04,SW,217,0.0,2.0,72,0.00,OVC,,0.00,WeatherDisplay:10.37,2013-05-24 19:56:00,
2013-05-24 13:01:00,55.5,46.2,30.04,WSW,240,2.0,7.0,71,0.00,OVC,,0.00,WeatherDisplay:10.37,2013-05-24 20:01:00,
2013-05-24 13:11:00,55.3,46.4,30.04,WSW,249,1.0,5.0,72,0.00,OVC,,0.00,WeatherDisplay:10.37,2013-05-24 20:11:00,
2013-05-24 13:16:00,55.5,45.9,30.04,WSW,248,3.0,6.0,70,0.00,OVC,,0.00,WeatherDisplay:10.37,2013-05-24 20:16:00,
2013-05-24 13:21:00,55.3,46.1,30.04,WSW,242,1.0,4.0,71,0.00,OVC,,0.00,WeatherDisplay:10.37,2013-05-24 20:21:00,
2013-05-24 13:26:00,55.5,46.3,30.04,WSW,241,2.0,7.0,71,0.00,OVC,,0.00,WeatherDisplay:10.37,2013-05-24 20:26:00,
2013-05-24 13:31:00,55.8,46.9,30.04,SW,233,1.0,5.0,72,0.00,OVC,,0.00,WeatherDisplay:10.37,2013-05-24 20:31:00,
2013-05-24 13:36:00,56.0,46.4,30.04,WSW,240,1.0,7.0,70,0.00,OVC,,0.00,WeatherDisplay:10.37,2013-05-24 20:36:00,
2013-05-24 13:41:00,56.1,46.0,30.05,West,267,1.0,6.0,69,0.00,OVC,,0.00,WeatherDisplay:10.37,2013-05-24 20:41:00,
2013-05-24 13:46:00,56.2,46.5,30.05,WSW,256,1.0,6.0,70,0.00,OVC,,0.00,WeatherDisplay:10.37,2013-05-24 20:46:00,
2013-05-24 13:51:00,56.3,45.9,30.05,WSW,244,1.0,8.0,68,0.00,OVC,,0.00,WeatherDisplay:10.37,2013-05-24 20:51:00,
2013-05-24 13:56:00,56.3,46.2,30.04,WSW,244,0.0,3.0,69,0.00,OVC,,0.00,WeatherDisplay:10.37,2013-05-24 20:56:00,
2013-05-24 14:01:00,56.6,46.2,30.04,SW,216,1.0,4.0,68,0.00,OVC,,0.00,WeatherDisplay:10.37,2013-05-24 21:01:00,
2013-05-24 14:11:00,57.7,46.4,30.04,SW,214,2.0,5.0,66,0.00,OVC,,0.00,WeatherDisplay:10.37,2013-05-24 21:11:00,
2013-05-24 14:16:00,57.8,46.1,30.04,SSE,165,1.0,3.0,65,0.00,OVC,,0.00,WeatherDisplay:10.37,2013-05-24 21:16:00,
2013-05-24 14:21:00,58.2,46.5,30.04,SSE,151,2.0,3.0,65,0.00,OVC,,0.00,WeatherDisplay:10.37,2013-05-24 21:21:00,
2013-05-24 14:26:00,58.0,46.3,30.04,SE,130,1.0,4.0,65,0.00,OVC,,0.00,WeatherDisplay:10.37,2013-05-24 21:26:00,
2013-05-24 14:31:00,58.4,46.7,30.04,ESE,121,0.0,2.0,65,0.00,OVC,,0.00,WeatherDisplay:10.37,2013-05-24 21:31:00,
2013-05-24 14:36:00,58.9,46.3,30.04,SE,137,2.0,5.0,63,0.00,OVC,,0.00,WeatherDisplay:10.37,2013-05-24 21:36:00,
2013-05-24 14:41:00,59.0,46.4,30.04,SE,124,2.0,3.0,63,0.00,OVC,,0.00,WeatherDisplay:10.37,2013-05-24 21:41:00,
2013-05-24 14:46:00,60.0,45.6,30.04,SSE,152,2.0,9.0,59,0.00,OVC,,0.00,WeatherDisplay:10.37,2013-05-24 21:46:00,
2013-05-24 14:51:00,60.1,45.2,30.03,SW,228,2.0,7.0,58,0.00,OVC,,0.00,WeatherDisplay:10.37,2013-05-24 21:51:00,
2013-05-24 14:56:00,60.2,44.0,30.03,WSW,253,3.0,7.0,55,0.00,OVC,,0.00,WeatherDisplay:10.37,2013-05-24 21:56:00,
2013-05-24 15:01:00,60.5,45.6,30.03,WSW,257,2.0,4.0,58,0.00,FEW,,0.00,WeatherDisplay:10.37,2013-05-24 22:01:00,
2013-05-24 15:11:00,61.7,45.4,30.03,SSW,192,1.0,3.0,55,0.00,FEW,,0.00,WeatherDisplay:10.37,2013-05-24 22:11:00,
2013-05-24 15:16:00,61.7,44.4,30.03,WSW,244,0.0,4.0,53,0.00,FEW,,0.00,WeatherDisplay:10.37,2013-05-24 22:16:00,
2013-05-24 15:21:00,62.0,44.6,30.03,West,266,1.0,6.0,53,0.00,FEW,,0.00,WeatherDisplay:10.37,2013-05-24 22:21:00,
2013-05-24 15:26:00,61.8,45.5,30.03,West,260,2.0,6.0,55,0.00,FEW,,0.00,WeatherDisplay:10.37,2013-05-24 22:26:00,
2013-05-24 15:31:00,61.5,43.7,30.03,SW,233,2.0,6.0,52,0.00,FEW,,0.00,WeatherDisplay:10.37,2013-05-24 22:31:00,
2013-05-24 15:36:00,61.3,44.0,30.03,West,262,2.0,6.0,53,0.00,FEW,,0.00,WeatherDisplay:10.37,2013-05-24 22:36:00,
2013-05-24 15:41:00,61.8,45.5,30.03,WNW,286,1.0,2.0,55,0.00,FEW,,0.00,WeatherDisplay:10.37,2013-05-24 22:41:00,
2013-05-24 15:46:00,62.2,44.4,30.03,WSW,247,2.0,6.0,52,0.00,FEW,,0.00,WeatherDisplay:10.37,2013-05-24 22:46:00,
2013-05-24 15:51:00,62.0,44.7,30.03,West,263,1.0,6.0,53,0.00,FEW,,0.00,WeatherDisplay:10.37,2013-05-24 22:51:00,
2013-05-24 15:56:00,62.0,44.2,30.03,WSW,238,2.0,6.0,52,0.00,FEW,,0.00,WeatherDisplay:10.37,2013-05-24 22:56:00,
2013-05-24 16:01:00,61.7,43.9,30.03,SSW,195,2.0,4.0,52,0.00,SCT,,0.00,WeatherDisplay:10.37,2013-05-24 23:01:00,
2013-05-24 16:11:00,61.9,45.0,30.03,SSW,208,1.0,4.0,54,0.00,SCT,,0.00,WeatherDisplay:10.37,2013-05-24 23:11:00,
2013-05-24 16:16:00,62.2,44.3,30.03,West,263,2.0,8.0,52,0.00,SCT,,0.00,WeatherDisplay:10.37,2013-05-24 23:16:00,
2013-05-24 16:21:00,61.9,44.6,30.03,SSW,210,2.0,8.0,53,0.00,SCT,,0.00,WeatherDisplay:10.37,2013-05-24 23:21:00,
2013-05-24 16:26:00,61.8,44.0,30.03,SW,226,3.0,6.0,52,0.00,SCT,,0.00,WeatherDisplay:10.37,2013-05-24 23:26:00,
2013-05-24 16:31:00,61.2,43.4,30.03,WSW,237,3.0,8.0,52,0.00,SCT,,0.00,WeatherDisplay:10.37,2013-05-24 23:31:00,
2013-05-24 16:36:00,61.0,44.2,30.03,SW,235,2.0,4.0,54,0.00,SCT,,0.00,WeatherDisplay:10.37,2013-05-24 23:36:00,
2013-05-24 16:41:00,60.7,44.0,30.03,West,260,2.0,7.0,54,0.00,SCT,,0.00,WeatherDisplay:10.37,2013-05-24 23:41:00,
2013-05-24 16:46:00,60.8,44.1,30.03,West,266,1.0,3.0,54,0.00,SCT,,0.00,WeatherDisplay:10.37,2013-05-24 23:46:00,
2013-05-24 16:51:00,61.3,44.5,30.03,WSW,242,1.0,5.0,54,0.00,SCT,,0.00,WeatherDisplay:10.37,2013-05-24 23:51:00,
2013-05-24 16:56:00,61.2,43.9,30.03,WSW,242,3.0,9.0,53,0.00,SCT,,0.00,WeatherDisplay:10.37,2013-05-24 23:56:00,
2013-05-24 17:01:00,60.9,43.1,30.03,WSW,238,5.0,8.0,52,0.00,SCT,,0.00,WeatherDisplay:10.37,2013-05-25 00:01:00,
2013-05-24 17:11:00,61.2,44.4,30.03,West,266,1.0,5.0,54,0.00,SCT,,0.00,WeatherDisplay:10.37,2013-05-25 00:11:00,
2013-05-24 17:16:00,61.7,45.3,30.03,West,277,1.0,4.0,55,0.00,SCT,,0.00,WeatherDisplay:10.37,2013-05-25 00:16:00,
2013-05-24 17:21:00,61.6,44.3,30.03,West,261,1.0,6.0,53,0.00,SCT,,0.00,WeatherDisplay:10.37,2013-05-25 00:21:00,
2013-05-24 17:26:00,61.6,44.3,30.03,WSW,258,2.0,6.0,53,0.00,SCT,,0.00,WeatherDisplay:10.37,2013-05-25 00:26:00,
2013-05-24 17:31:00,61.6,44.8,30.03,SW,224,1.0,8.0,54,0.00,SCT,,0.00,WeatherDisplay:10.37,2013-05-25 00:31:00,
2013-05-24 17:36:00,61.6,43.8,30.03,SW,224,1.0,6.0,52,0.00,SCT,,0.00,WeatherDisplay:10.37,2013-05-25 00:36:00,
2013-05-24 17:41:00,61.6,44.3,30.03,WSW,254,2.0,3.0,53,0.00,SCT,,0.00,WeatherDisplay:10.37,2013-05-25 00:41:00,
2013-05-24 17:46:00,61.9,44.5,30.03,WSW,248,2.0,5.0,53,0.00,SCT,,0.00,WeatherDisplay:10.37,2013-05-25 00:46:00,
2013-05-24 17:51:00,61.8,44.5,30.03,WSW,253,1.0,4.0,53,0.00,SCT,,0.00,WeatherDisplay:10.37,2013-05-25 00:51:00,
2013-05-24 17:56:00,61.7,44.4,30.03,WSW,239,3.0,8.0,53,0.00,SCT,,0.00,WeatherDisplay:10.37,2013-05-25 00:56:00,
2013-05-24 18:01:00,61.3,45.0,30.03,WSW,244,2.0,4.0,55,0.00,BKN,,0.00,WeatherDisplay:10.37,2013-05-25 01:01:00,
2013-05-24 18:11:00,60.9,43.6,30.03,SW,229,3.0,7.0,53,0.00,BKN,,0.00,WeatherDisplay:10.37,2013-05-25 01:11:00,
2013-05-24 18:16:00,60.7,43.9,30.03,SW,235,1.0,5.0,54,0.00,BKN,,0.00,WeatherDisplay:10.37,2013-05-25 01:16:00,
2013-05-24 18:21:00,60.6,44.3,30.03,SW,228,1.0,5.0,55,0.00,BKN,,0.00,WeatherDisplay:10.37,2013-05-25 01:21:00,
2013-05-24 18:26:00,60.6,44.8,30.03,SSW,212,1.0,7.0,56,0.00,BKN,,0.00,WeatherDisplay:10.37,2013-05-25 01:26:00,
2013-05-24 18:31:00,60.3,45.0,30.03,SSW,211,2.0,7.0,57,0.00,BKN,,0.00,WeatherDisplay:10.37,2013-05-25 01:31:00,
2013-05-24 18:36:00,60.1,45.3,30.03,SSW,212,0.0,6.0,58,0.00,BKN,,0.00,WeatherDisplay:10.37,2013-05-25 01:36:00,
2013-05-24 18:41:00,59.9,45.1,30.03,SW,219,1.0,8.0,58,0.00,BKN,,0.00,WeatherDisplay:10.37,2013-05-25 01:41:00,
2013-05-24 18:46:00,59.7,44.9,30.03,SW,222,2.0,6.0,58,0.00,BKN,,0.00,WeatherDisplay:10.37,2013-05-25 01:46:00,
2013-05-24 18:51:00,59.7,45.4,30.03,WSW,246,1.0,6.0,59,0.00,BKN,,0.00,WeatherDisplay:10.37,2013-05-25 01:51:00,
2013-05-24 18:56:00,59.7,45.3,30.03,SW,233,1.0,7.0,59,0.00,BKN,,0.00,WeatherDisplay:10.37,2013-05-25 01:56:00,
2013-05-24 19:01:00,59.6,45.7,30.03,WSW,242,1.0,7.0,60,0.00,OVC,,0.00,WeatherDisplay:10.37,2013-05-25 02:01:00,
2013-05-24 19:11:00,59.4,45.9,30.03,SSW,212,1.0,5.0,61,0.00,OVC,,0.00,WeatherDisplay:10.37,2013-05-25 02:11:00,
2013-05-24 19:16:00,59.2,46.2,30.03,West,259,1.0,6.0,62,0.00,OVC,,0.00,WeatherDisplay:10.37,2013-05-25 02:16:00,
2013-05-24 19:21:00,58.8,46.7,30.04,SSW,205,2.0,8.0,64,0.00,OVC,,0.00,WeatherDisplay:10.37,2013-05-25 02:21:00,
2013-05-24 19:26:00,58.6,46.9,30.04,SSE,166,1.0,8.0,65,0.00,OVC,,0.00,WeatherDisplay:10.37,2013-05-25 02:26:00,
2013-05-24 19:31:00,58.5,46.8,30.04,WSW,242,1.0,5.0,65,0.00,OVC,,0.00,WeatherDisplay:10.37,2013-05-25 02:31:00,
2013-05-24 19:36:00,58.2,46.9,30.04,SSW,194,2.0,8.0,66,0.00,OVC,,0.00,WeatherDisplay:10.37,2013-05-25 02:36:00,
2013-05-24 19:41:00,58.0,46.7,30.04,South,187,1.0,4.0,66,0.00,OVC,,0.00,WeatherDisplay:10.37,2013-05-25 02:41:00,
2013-05-24 19:46:00,57.8,46.5,30.04,SSW,206,1.0,4.0,66,0.00,OVC,,0.00,WeatherDisplay:10.37,2013-05-25 02:46:00,
2013-05-24 19:51:00,57.5,46.6,30.04,SW,219,3.0,9.0,67,0.00,OVC,,0.00,WeatherDisplay:10.37,2013-05-25 02:51:00,
2013-05-24 19:56:00,57.3,46.8,30.04,SW,229,1.0,3.0,68,0.00,OVC,,0.00,WeatherDisplay:10.37,2013-05-25 02:56:00,
2013-05-24 20:01:00,57.1,47.1,30.04,South,169,1.0,5.0,69,0.00,OVC,,0.00,WeatherDisplay:10.37,2013-05-25 03:01:00,
2013-05-24 20:11:00,56.5,47.6,30.04,South,177,1.0,5.0,72,0.00,OVC,,0.00,WeatherDisplay:10.37,2013-05-25 03:11:00,
2013-05-24 20:16:00,56.1,47.6,30.04,South,178,2.0,7.0,73,0.00,OVC,,0.00,WeatherDisplay:10.37,2013-05-25 03:16:00,
2013-05-24 20:21:00,55.8,47.7,30.04,South,182,1.0,3.0,74,0.00,OVC,,0.00,WeatherDisplay:10.37,2013-05-25 03:21:00,
2013-05-24 20:26:00,55.6,47.4,30.05,SSE,147,2.0,5.0,74,0.00,OVC,,0.00,WeatherDisplay:10.37,2013-05-25 03:26:00,
2013-05-24 20:31:00,55.4,47.2,30.05,SE,141,1.0,3.0,74,0.00,OVC,,0.00,WeatherDisplay:10.37,2013-05-25 03:31:00,
2013-05-24 20:36:00,55.2,47.1,30.05,SSE,159,1.0,3.0,74,0.00,OVC,,0.00,WeatherDisplay:10.37,2013-05-25 03:36:00,
2013-05-24 20:41:00,55.1,47.0,30.05,SSE,168,1.0,5.0,74,0.00,OVC,,0.00,WeatherDisplay:10.37,2013-05-25 03:41:00,
2013-05-24 20:46:00,55.0,46.9,30.05,SSE,160,1.0,3.0,74,0.00,OVC,,0.00,WeatherDisplay:10.37,2013-05-25 03:46:00,
2013-05-24 20:51:00,54.9,46.8,30.05,SSE,164,1.0,4.0,74,0.00,OVC,,0.00,WeatherDisplay:10.37,2013-05-25 03:51:00,
2013-05-24 20:56:00,54.9,47.1,30.05,South,191,1.0,2.0,75,0.00,OVC,,0.00,WeatherDisplay:10.37,2013-05-25 03:56:00,
2013-05-24 21:01:00,54.8,47.0,30.05,SSW,205,1.0,6.0,75,0.00,OVC,,0.00,WeatherDisplay:10.37,2013-05-25 04:01:00,
2013-05-24 21:06:00,54.7,46.9,30.05,South,183,2.0,6.0,75,0.00,OVC,,0.00,WeatherDisplay:10.37,2013-05-25 04:06:00,
2013-05-24 21:11:00,54.6,47.1,30.06,South,173,1.0,4.0,76,0.00,OVC,,0.00,WeatherDisplay:10.37,2013-05-25 04:11:00,
2013-05-24 21:16:00,54.5,47.4,30.06,South,172,2.0,7.0,77,0.00,OVC,,0.00,WeatherDisplay:10.37,2013-05-25 04:16:00,
2013-05-24 21:21:00,54.3,47.6,30.06,South,186,1.0,7.0,78,0.00,OVC,,0.00,WeatherDisplay:10.37,2013-05-25 04:21:00,
2013-05-24 21:26:00,54.2,47.8,30.06,SSE,167,1.0,4.0,79,0.00,OVC,,0.00,WeatherDisplay:10.37,2013-05-25 04:26:00,
2013-05-24 21:31:00,54.1,48.0,30.06,SSE,168,3.0,7.0,80,0.00,OVC,,0.00,WeatherDisplay:10.37,2013-05-25 04:31:00,
2013-05-24 21:36:00,53.8,47.8,30.06,South,178,1.0,3.0,80,0.00,OVC,,0.00,WeatherDisplay:10.37,2013-05-25 04:36:00,
2013-05-24 21:41:00,53.6,48.0,30.06,SSW,205,1.0,4.0,81,0.00,OVC,,0.00,WeatherDisplay:10.37,2013-05-25 04:41:00,
2013-05-24 21:46:00,53.4,48.1,30.06,SSE,158,5.0,9.0,82,0.00,OVC,,0.00,WeatherDisplay:10.37,2013-05-25 04:46:00,
2013-05-24 21:51:00,53.2,47.9,30.06,SSW,212,1.0,7.0,82,0.00,OVC,,0.00,WeatherDisplay:10.37,2013-05-25 04:51:00,
2013-05-24 21:56:00,53.2,48.2,30.06,SSW,197,1.0,3.0,83,0.00,OVC,,0.00,WeatherDisplay:10.37,2013-05-25 04:56:00,
2013-05-24 22:01:00,53.3,48.3,30.06,South,185,2.0,8.0,83,0.00,BKN,,0.00,WeatherDisplay:10.37,2013-05-25 05:01:00,
2013-05-24 22:11:00,53.2,48.2,30.06,South,181,1.0,5.0,83,0.00,BKN,,0.00,WeatherDisplay:10.37,2013-05-25 05:11:00,
2013-05-24 22:16:00,53.1,48.7,30.06,South,171,1.0,4.0,85,0.00,BKN,,0.00,WeatherDisplay:10.37,2013-05-25 05:16:00,
2013-05-24 22:21:00,52.9,48.9,30.06,South,180,1.0,4.0,86,0.00,BKN,,0.00,WeatherDisplay:10.37,2013-05-25 05:21:00,
2013-05-24 22:26:00,52.8,48.7,30.06,SSW,203,1.0,8.0,86,0.00,BKN,,0.00,WeatherDisplay:10.37,2013-05-25 05:26:00,
2013-05-24 22:31:00,52.7,48.6,30.06,SW,233,1.0,4.0,86,0.00,BKN,,0.00,WeatherDisplay:10.37,2013-05-25 05:31:00,
2013-05-24 22:36:00,52.7,48.6,30.06,SSW,210,2.0,4.0,86,0.00,BKN,,0.00,WeatherDisplay:10.37,2013-05-25 05:36:00,
2013-05-24 22:41:00,52.6,48.5,30.06,SW,222,2.0,8.0,86,0.00,BKN,,0.00,WeatherDisplay:10.37,2013-05-25 05:41:00,
2013-05-24 22:46:00,52.5,48.4,30.06,South,182,1.0,5.0,86,0.00,BKN,,0.00,WeatherDisplay:10.37,2013-05-25 05:46:00,
2013-05-24 22:51:00,52.4,48.3,30.06,South,183,0.0,4.0,86,0.00,BKN,,0.00,WeatherDisplay:10.37,2013-05-25 05:51:00,
2013-05-24 22:56:00,52.2,48.1,30.06,South,185,0.0,3.0,86,0.00,BKN,,0.00,WeatherDisplay:10.37,2013-05-25 05:56:00,
2013-05-24 23:01:00,52.1,48.3,30.06,SSE,153,0.0,6.0,87,0.00,OVC,,0.00,WeatherDisplay:10.37,2013-05-25 06:01:00,
2013-05-24 23:11:00,51.9,48.2,30.06,SE,143,1.0,3.0,87,0.00,OVC,,0.00,WeatherDisplay:10.37,2013-05-25 06:11:00,
2013-05-24 23:16:00,51.8,48.1,30.06,SE,134,0.0,3.0,87,0.00,OVC,,0.00,WeatherDisplay:10.37,2013-05-25 06:16:00,
2013-05-24 23:21:00,51.8,48.0,30.06,SSE,157,1.0,3.0,87,0.00,OVC,,0.00,WeatherDisplay:10.37,2013-05-25 06:21:00,
2013-05-24 23:26:00,51.7,47.6,30.06,SSE,167,0.0,3.0,86,0.00,OVC,,0.00,WeatherDisplay:10.37,2013-05-25 06:26:00,
2013-05-24 23:31:00,51.5,47.5,30.06,SSE,151,1.0,8.0,86,0.00,OVC,,0.00,WeatherDisplay:10.37,2013-05-25 06:31:00,
2013-05-24 23:36:00,51.5,47.1,30.06,SSW,209,0.0,5.0,85,0.00,OVC,,0.00,WeatherDisplay:10.37,2013-05-25 06:36:00,
2013-05-24 23:41:00,51.4,46.7,30.05,South,178,1.0,5.0,84,0.00,OVC,,0.00,WeatherDisplay:10.37,2013-05-25 06:41:00,
2013-05-24 23:46:00,51.4,46.7,30.05,SSE,152,2.0,4.0,84,0.00,OVC,,0.00,WeatherDisplay:10.37,2013-05-25 06:46:00,
2013-05-24 23:51:00,51.3,46.7,30.05,SSE,155,2.0,5.0,84,0.00,OVC,,0.00,WeatherDisplay:10.37,2013-05-25 06:51:00,
2013-05-24 23:56:00,51.2,46.9,30.05,SSE,151,0.0,2.0,85,0.00,OVC,,0.00,WeatherDisplay:10.37,2013-05-25 06:56:00,